• In Hungary
  • List of Countries
  • For 7 days
  • Water Temperature
  • Satellite Maps
  • Weather Map
  • News
  • Weather Widgets
  • user-avatar
    Login

    Hourly Weather Ballymena

    Today, 17 November, Friday

    Time Temperature Precipitation Wind Pressure Humidity
    00:00 +3°C° 0 mm 4 mps 763 mmHg 82%
    01:00 +3°C° 0 mm 4 mps 762 mmHg 84%
    02:00 +3°C° 0 mm 4 mps 762 mmHg 85%
    03:00 +1°C° 0 mm 4 mps 762 mmHg 86%
    04:00 +2°C° 0 mm 5 mps 762 mmHg 86%
    05:00 +2°C° 0 mm 5 mps 762 mmHg 86%
    06:00 +1°C° 0 mm 4 mps 762 mmHg 87%
    07:00 +2°C° 0 mm 5 mps 762 mmHg 87%
    08:00 +2°C° 0 mm 5 mps 762 mmHg 86%
    09:00 +2°C° 0 mm 5 mps 762 mmHg 85%
    10:00 +3°C° 0 mm 6 mps 762 mmHg 82%
    11:00 +4°C° 0 mm 6 mps 762 mmHg 79%
    12:00 +5°C° 0 mm 7 mps 762 mmHg 75%
    13:00 +6°C° 0.1 mm 7 mps 761 mmHg 76%
    14:00 +6°C° 0.1 mm 7 mps 761 mmHg 76%
    15:00 +6°C° 0.1 mm 7 mps 761 mmHg 77%
    16:00 +5°C° 0 mm 7 mps 761 mmHg 79%
    17:00 +4°C° 0 mm 6 mps 760 mmHg 82%
    18:00 +4°C° 0 mm 6 mps 760 mmHg 84%
    19:00 +4°C° 0 mm 6 mps 760 mmHg 84%
    20:00 +4°C° 0 mm 7 mps 760 mmHg 85%
    21:00 +3°C° 0 mm 7 mps 760 mmHg 85%
    22:00 +4°C° 0.1 mm 7 mps 760 mmHg 85%
    23:00 +4°C° 0.1 mm 7 mps 759 mmHg 85%

    Tomorrow, 18 November, Saturday

    Time Temperature Precipitation Wind Pressure Humidity
    00:00 +4°C° 0.1 mm 7 mps 759 mmHg 85%
    01:00 +3°C° 0 mm 7 mps 759 mmHg 85%
    02:00 +3°C° 0 mm 6 mps 759 mmHg 85%
    03:00 +3°C° 0 mm 6 mps 758 mmHg 85%
    04:00 +3°C° 0 mm 6 mps 759 mmHg 85%
    05:00 +3°C° 0 mm 6 mps 759 mmHg 85%
    06:00 +3°C° 0 mm 6 mps 759 mmHg 85%
    07:00 +3°C° 0 mm 5 mps 759 mmHg 84%
    08:00 +3°C° 0 mm 5 mps 759 mmHg 83%
    09:00 +3°C° 0 mm 5 mps 759 mmHg 82%
    10:00 +5°C° 0 mm 5 mps 759 mmHg 78%
    11:00 +5°C° 0 mm 5 mps 760 mmHg 75%
    12:00 +6°C° 0 mm 5 mps 760 mmHg 71%
    13:00 +6°C° 0 mm 5 mps 760 mmHg 72%
    14:00 +6°C° 0 mm 4 mps 760 mmHg 72%
    15:00 +6°C° 0 mm 4 mps 760 mmHg 73%
    16:00 +5°C° 0 mm 4 mps 760 mmHg 75%
    17:00 +4°C° 0 mm 4 mps 760 mmHg 77%
    18:00 +4°C° 0 mm 4 mps 760 mmHg 79%
    19:00 +3°C° 0 mm 4 mps 760 mmHg 80%
    20:00 +3°C° 0 mm 3 mps 760 mmHg 81%
    21:00 +3°C° 0 mm 3 mps 760 mmHg 82%
    22:00 +3°C° 0 mm 3 mps 760 mmHg 82%
    23:00 +3°C° 0 mm 3 mps 761 mmHg 83%

    Day after tomorrow, 19 November, Sunday

    Time Temperature Precipitation Wind Pressure Humidity
    00:00 +2°C° 0 mm 3 mps 761 mmHg 83%
    01:00 +3°C° 0 mm 2 mps 760 mmHg 83%
    02:00 +3°C° 0 mm 2 mps 760 mmHg 84%
    03:00 +3°C° 0 mm 2 mps 760 mmHg 84%
    04:00 +5°C° 0 mm 1 mps 760 mmHg 84%
    05:00 +5°C° 0 mm 1 mps 760 mmHg 83%
    06:00 +5°C° 0 mm 1 mps 760 mmHg 83%
    07:00 +5°C° 0.1 mm 1 mps 760 mmHg 84%
    08:00 +4°C° 0.1 mm 2 mps 760 mmHg 84%
    09:00 +5°C° 0.1 mm 2 mps 760 mmHg 84%
    10:00 +4°C° 0.1 mm 3 mps 759 mmHg 84%
    11:00 +4°C° 0.1 mm 4 mps 759 mmHg 84%
    12:00 +5°C° 0.1 mm 5 mps 759 mmHg 84%
    13:00 +5°C° 0 mm 5 mps 758 mmHg 86%
    14:00 +6°C° 0 mm 5 mps 757 mmHg 88%
    15:00 +6°C° 0 mm 5 mps 756 mmHg 90%
    16:00 +7°C° 0.5 mm 5 mps 756 mmHg 92%
    17:00 +7°C° 0.5 mm 5 mps 755 mmHg 93%
    18:00 +7°C° 0.5 mm 5 mps 754 mmHg 95%
    19:00 +8°C° 0.3 mm 6 mps 754 mmHg 94%
    20:00 +8°C° 0.3 mm 6 mps 753 mmHg 93%
    21:00 +9°C° 0.3 mm 7 mps 752 mmHg 93%
    22:00 +9°C° 0.1 mm 7 mps 752 mmHg 93%
    23:00 +10°C° 0.1 mm 7 mps 751 mmHg 93%

    20 November, Monday

    Time Temperature Precipitation Wind Pressure Humidity
    00:00 +10°C° 0.1 mm 7 mps 751 mmHg 93%
    01:00 +10°C° 0.1 mm 7 mps 750 mmHg 92%
    02:00 +10°C° 0.1 mm 7 mps 750 mmHg 92%
    03:00 +10°C° 0.1 mm 7 mps 749 mmHg 91%
    04:00 +10°C° 0.1 mm 7 mps 749 mmHg 90%
    05:00 +10°C° 0.1 mm 8 mps 748 mmHg 88%
    06:00 +10°C° 0.1 mm 8 mps 748 mmHg 87%
    07:00 +10°C° 0.1 mm 8 mps 748 mmHg 87%
    08:00 +10°C° 0.1 mm 9 mps 748 mmHg 87%
    09:00 +10°C° 0.1 mm 9 mps 748 mmHg 87%
    10:00 +10°C° 0.1 mm 8 mps 748 mmHg 86%
    11:00 +10°C° 0.1 mm 8 mps 748 mmHg 86%
    12:00 +11°C° 0.1 mm 7 mps 749 mmHg 86%
    13:00 +11°C° 0 mm 7 mps 749 mmHg 86%
    14:00 +11°C° 0 mm 6 mps 749 mmHg 86%
    15:00 +10°C° 0 mm 5 mps 749 mmHg 87%
    16:00 +11°C° 0 mm 4 mps 749 mmHg 89%
    17:00 +11°C° 0 mm 4 mps 749 mmHg 91%
    18:00 +10°C° 0 mm 3 mps 749 mmHg 93%
    19:00 +10°C° 0.1 mm 3 mps 749 mmHg 94%
    20:00 +11°C° 0.1 mm 3 mps 749 mmHg 95%
    21:00 +11°C° 0.1 mm 3 mps 749 mmHg 96%
    22:00 +11°C° 0.9 mm 3 mps 748 mmHg 95%
    23:00 +11°C° 0.9 mm 4 mps 748 mmHg 94%

    21 November, Tuesday

    Time Temperature Precipitation Wind Pressure Humidity
    00:00 +10°C° 0.9 mm 5 mps 748 mmHg 94%
    01:00 +10°C° 0.7 mm 5 mps 747 mmHg 93%
    02:00 +10°C° 0.7 mm 6 mps 746 mmHg 93%
    03:00 +10°C° 0.7 mm 6 mps 746 mmHg 93%
    04:00 +10°C° 0.6 mm 6 mps 746 mmHg 93%
    05:00 +11°C° 0.6 mm 6 mps 745 mmHg 93%
    06:00 +11°C° 0.6 mm 6 mps 745 mmHg 93%
    07:00 +11°C° 0.1 mm 6 mps 745 mmHg 93%
    08:00 +11°C° 0.1 mm 6 mps 745 mmHg 93%
    09:00 +12°C° 0.1 mm 5 mps 745 mmHg 92%
    10:00 +12°C° 0.1 mm 5 mps 745 mmHg 92%
    11:00 +13°C° 0.1 mm 5 mps 745 mmHg 92%
    12:00 +13°C° 0.1 mm 4 mps 746 mmHg 92%
    13:00 +13°C° 0.3 mm 5 mps 745 mmHg 91%
    14:00 +13°C° 0.3 mm 5 mps 745 mmHg 90%
    15:00 +13°C° 0.3 mm 5 mps 745 mmHg 89%
    16:00 +11°C° 0 mm 6 mps 744 mmHg 89%
    17:00 +11°C° 0 mm 6 mps 744 mmHg 89%
    18:00 +11°C° 0 mm 6 mps 743 mmHg 89%
    19:00 +11°C° 0.5 mm 7 mps 743 mmHg 90%
    20:00 +11°C° 0.5 mm 7 mps 743 mmHg 90%
    21:00 +11°C° 0.5 mm 8 mps 743 mmHg 90%
    22:00 +11°C° 0.1 mm 8 mps 742 mmHg 90%
    23:00 +11°C° 0.1 mm 8 mps 742 mmHg 89%

    22 November, Wednesday

    Time Temperature Precipitation Wind Pressure Humidity
    00:00 +11°C° 0.1 mm 8 mps 742 mmHg 89%
    01:00 +11°C° 0 mm 8 mps 741 mmHg 89%
    02:00 +11°C° 0 mm 8 mps 741 mmHg 89%
    03:00 +11°C° 0 mm 8 mps 740 mmHg 89%
    04:00 +11°C° 0 mm 8 mps 739 mmHg 89%
    05:00 +10°C° 0 mm 8 mps 739 mmHg 89%
    06:00 +10°C° 0 mm 8 mps 738 mmHg 89%
    07:00 +11°C° 0.1 mm 9 mps 737 mmHg 88%
    08:00 +11°C° 0.1 mm 10 mps 736 mmHg 86%
    09:00 +11°C° 0.1 mm 10 mps 735 mmHg 85%
    10:00 +12°C° 0.3 mm 11 mps 735 mmHg 85%
    11:00 +12°C° 0.3 mm 11 mps 734 mmHg 86%
    12:00 +12°C° 0.3 mm 11 mps 733 mmHg 86%
    13:00 +12°C° 0.7 mm 10 mps 733 mmHg 87%
    14:00 +12°C° 0.7 mm 9 mps 732 mmHg 88%
    15:00 +12°C° 0.7 mm 8 mps 732 mmHg 90%
    16:00 +11°C° 0.3 mm 7 mps 732 mmHg 90%
    17:00 +11°C° 0.3 mm 6 mps 732 mmHg 90%
    18:00 +10°C° 0.3 mm 6 mps 732 mmHg 90%
    19:00 +10°C° 0.1 mm 6 mps 733 mmHg 91%
    20:00 +10°C° 0.1 mm 5 mps 734 mmHg 91%
    21:00 +9°C° 0.1 mm 5 mps 735 mmHg 91%
    22:00 +9°C° 0 mm 5 mps 735 mmHg 92%
    23:00 +8°C° 0 mm 5 mps 736 mmHg 93%
    Show more